Fairmont, MN

5:11 PM CDT on April 22, 2018 (GMT -0500)
Fairmont Municipal

Weather History for KFRM - February, 2012

Change the Weather History Date:

Monday, February 13, 2012

  Actual Average Record
Temperature  
Mean Temperature 24 °F -  
Max Temperature 28 °F 27 °F 53 °F (1954)
Min Temperature 19 °F 10 °F -18 °F (1970)
Degree Days  
Heating Degree Days 42    
Moisture  
Dew Point 18 °F    
Average Humidity 75    
Maximum Humidity 93    
Minimum Humidity 46    
Precipitation  
Precipitation 0.00 in - - ()
Sea Level Pressure  
Sea Level Pressure 29.87 in    
Wind  
Wind Speed 11 mph (South)    
Max Wind Speed 16 mph    
Max Gust Speed -    
Visibility 5 miles    
Events      
Averages and records for this station are not official NWS values.
T = Trace of Precipitation, MM = Missing Value Source: NWS Daily Summary

Daily Weather History Graph

Daily Weather History Graph

Search for Another Location

Airport or City:

Astronomy

Feb. 13, 2012 Rise Set
Actual Time 7:19 AM CST 5:44 PM CST
Civil Twilight 6:50 AM CST 6:14 PM CST
Nautical Twilight 6:16 AM CST 6:47 PM CST
Astronomical Twilight 5:43 AM CST 7:21 PM CST
Moon No Moon Rise 10:04 AM CST (2/13)
Length of Visible Light 11h 24m
Length of Day
10h 24m
Waning Gibbous, 61% of the Moon is Illuminated
Feb 13
Waning Gibbous
Feb 14
Last Quarter
Feb 21
New
Feb 29
First Quarter
Mar 8
Full

Hourly Weather History & Observations

Time (CST) Temp. Windchill Dew Point Humidity Pressure Visibility Wind Dir Wind Speed Gust Speed Precip Events Conditions
12:15 AM 19.4 °F 7.2 °F 5.0 °F 54% 30.07 in 10.0 mi South 11.5 mph - N/A   Overcast
12:35 AM 19.4 °F 6.6 °F 5.0 °F 54% 30.06 in 10.0 mi South 12.7 mph - N/A   Overcast
12:55 AM 19.4 °F 7.2 °F 6.8 °F 58% 30.05 in 10.0 mi South 11.5 mph - N/A   Overcast
1:15 AM 21.2 °F 10.9 °F 6.8 °F 54% 30.04 in 10.0 mi South 9.2 mph - N/A   Overcast
1:35 AM 21.2 °F 10.1 °F 6.8 °F 54% 30.03 in 10.0 mi South 10.4 mph - N/A   Overcast
1:55 AM 21.2 °F 9.5 °F 6.8 °F 54% 30.03 in 10.0 mi South 11.5 mph - N/A   Overcast
2:15 AM 23.0 °F 11.1 °F 6.8 °F 50% 30.02 in 10.0 mi South 12.7 mph - N/A   Overcast
2:35 AM 23.0 °F 12.4 °F 6.8 °F 50% 30.01 in 10.0 mi South 10.4 mph - N/A   Overcast
2:55 AM 24.8 °F 14.6 °F 6.8 °F 46% 30.00 in 10.0 mi South 10.4 mph - N/A   Overcast
3:15 AM 24.8 °F 16.1 °F 6.8 °F 46% 29.99 in 10.0 mi South 8.1 mph - N/A   Overcast
3:35 AM 24.8 °F 15.3 °F 6.8 °F 46% 29.98 in 10.0 mi South 9.2 mph - N/A   Overcast
3:55 AM 24.8 °F 14.6 °F 8.6 °F 50% 29.97 in 10.0 mi South 10.4 mph - N/A   Overcast
4:15 AM 24.8 °F 14.0 °F 8.6 °F 50% 29.96 in 10.0 mi South 11.5 mph - N/A   Overcast
4:35 AM 24.8 °F 13.4 °F 8.6 °F 50% 29.96 in 10.0 mi South 12.7 mph - N/A   Overcast
4:55 AM 24.8 °F 14.0 °F 8.6 °F 50% 29.95 in 10.0 mi South 11.5 mph - N/A   Overcast
5:15 AM 24.8 °F 13.4 °F 8.6 °F 50% 29.94 in 10.0 mi South 12.7 mph - N/A   Overcast
5:35 AM 26.6 °F 14.7 °F 10.4 °F 51% 29.94 in 10.0 mi South 15.0 mph - N/A   Overcast
5:55 AM 26.6 °F 15.2 °F 10.4 °F 51% 29.93 in 10.0 mi South 13.8 mph - N/A   Overcast
6:15 AM 26.6 °F 15.2 °F 10.4 °F 51% 29.92 in 10.0 mi South 13.8 mph - N/A   Overcast
6:35 AM 26.6 °F 15.2 °F 12.2 °F 55% 29.92 in 10.0 mi South 13.8 mph - N/A   Mostly Cloudy
6:55 AM 24.8 °F 12.4 °F 17.6 °F 74% 29.92 in 5.0 mi South 15.0 mph - N/A   Partly Cloudy
7:15 AM 24.8 °F 14.0 °F 17.6 °F 74% 29.92 in 3.0 mi South 11.5 mph - N/A   Mostly Cloudy
7:35 AM 24.8 °F 14.6 °F 19.4 °F 80% 29.91 in 2.5 mi South 10.4 mph - N/A   Mostly Cloudy
7:55 AM 24.8 °F 14.6 °F 19.4 °F 80% 29.91 in 3.0 mi South 10.4 mph - N/A   Scattered Clouds
8:15 AM 24.8 °F 12.9 °F 19.4 °F 80% 29.91 in 2.5 mi South 13.8 mph - N/A   Mostly Cloudy
8:35 AM 24.8 °F 13.4 °F 19.4 °F 80% 29.90 in 2.0 mi South 12.7 mph - N/A   Overcast
8:55 AM 24.8 °F 13.4 °F 19.4 °F 80% 29.89 in 1.8 mi South 12.7 mph - N/A   Overcast
9:15 AM 24.8 °F 12.9 °F 21.2 °F 86% 29.89 in 1.5 mi South 13.8 mph - N/A   Overcast
9:35 AM 24.8 °F 13.4 °F 21.2 °F 86% 29.88 in 1.0 mi South 12.7 mph - N/A   Overcast
9:55 AM 24.8 °F 12.9 °F 21.2 °F 86% 29.88 in 1.5 mi SSE 13.8 mph - N/A   Scattered Clouds
10:15 AM 24.8 °F 12.9 °F 21.2 °F 86% 29.87 in 1.0 mi SSE 13.8 mph - N/A   Overcast
10:35 AM 24.8 °F 12.4 °F 21.2 °F 86% 29.86 in 1.2 mi SSE 15.0 mph - N/A   Mostly Cloudy
10:55 AM 26.6 °F 15.2 °F 23.0 °F 86% 29.86 in 1.8 mi South 13.8 mph - N/A   Mostly Cloudy
11:15 AM 26.6 °F 14.7 °F 23.0 °F 86% 29.85 in 2.0 mi South 15.0 mph - N/A   Overcast
11:35 AM 26.6 °F 15.2 °F 23.0 °F 86% 29.85 in 1.8 mi South 13.8 mph - N/A   Overcast
11:55 AM 26.6 °F 15.2 °F 23.0 °F 86% 29.84 in 1.5 mi South 13.8 mph - N/A   Overcast
12:15 PM 26.6 °F 14.7 °F 23.0 °F 86% 29.82 in 2.5 mi South 15.0 mph - N/A   Overcast
12:35 PM 28.4 °F 16.6 °F 23.0 °F 80% 29.81 in 3.0 mi South 16.1 mph - N/A   Overcast
12:55 PM 28.4 °F 16.6 °F 23.0 °F 80% 29.80 in 3.0 mi South 16.1 mph - N/A   Overcast
1:15 PM 28.4 °F 17.0 °F 24.8 °F 86% 29.79 in 1.2 mi South 15.0 mph - N/A   Overcast
1:35 PM 28.4 °F 17.0 °F 24.8 °F 86% 29.79 in 3.0 mi South 15.0 mph - N/A   Mostly Cloudy
1:55 PM 28.4 °F 18.5 °F 24.8 °F 86% 29.78 in 2.5 mi South 11.5 mph - N/A   Overcast
2:15 PM 28.4 °F 19.1 °F 24.8 °F 86% 29.77 in 2.0 mi South 10.4 mph - N/A   Overcast
2:35 PM 28.4 °F 18.5 °F 24.8 °F 86% 29.77 in 1.5 mi South 11.5 mph - N/A   Overcast
2:55 PM 26.6 °F 16.8 °F 24.8 °F 93% 29.77 in 2.0 mi South 10.4 mph - N/A   Overcast
3:15 PM 28.4 °F 19.7 °F 24.8 °F 86% 29.77 in 1.5 mi South 9.2 mph - N/A   Overcast
3:35 PM 28.4 °F 20.4 °F 24.8 °F 86% 29.77 in 1.5 mi South 8.1 mph - N/A   Overcast
3:55 PM 28.4 °F 21.2 °F 24.8 °F 86% 29.76 in 2.5 mi South 6.9 mph - N/A   Overcast
4:15 PM 28.4 °F 20.4 °F 24.8 °F 86% 29.76 in 2.5 mi South 8.1 mph - N/A   Overcast
4:35 PM 28.4 °F 22.2 °F 24.8 °F 86% 29.76 in 1.5 mi South 5.8 mph - N/A   Overcast
4:55 PM 28.4 °F 24.6 °F 24.8 °F 86% 29.76 in 0.8 mi South 3.5 mph - N/A   Overcast
5:15 PM 26.6 °F 22.6 °F 24.8 °F 93% 29.75 in 0.8 mi SSW 3.5 mph - N/A   Overcast
5:35 PM 26.6 °F - 24.8 °F 93% 29.76 in 1.0 mi Calm Calm - N/A   Overcast
5:55 PM 26.6 °F - 24.8 °F 93% 29.76 in 1.0 mi Calm Calm - N/A   Mostly Cloudy
6:15 PM 26.6 °F - 24.8 °F 93% 29.76 in 1.8 mi Calm Calm - N/A   Scattered Clouds
6:35 PM 26.6 °F - 24.8 °F 93% 29.76 in 2.0 mi Calm Calm - N/A   Clear
6:55 PM 26.6 °F 22.6 °F 24.8 °F 93% 29.76 in 2.5 mi SSW 3.5 mph - N/A   Clear
7:15 PM 26.6 °F 21.2 °F 24.8 °F 93% 29.76 in 2.5 mi SSW 4.6 mph - N/A   Clear
7:35 PM 26.6 °F 21.2 °F 24.8 °F 93% 29.76 in 3.0 mi SSW 4.6 mph - N/A   Clear
7:55 PM 26.6 °F 20.0 °F 24.8 °F 93% 29.76 in 4.0 mi SW 5.8 mph - N/A   Clear
8:15 PM 26.6 °F 21.2 °F 24.8 °F 93% 29.75 in 5.0 mi SW 4.6 mph - N/A   Clear
8:35 PM 26.6 °F 21.2 °F 23.0 °F 86% 29.75 in 4.0 mi SW 4.6 mph - N/A   Clear
8:55 PM 26.6 °F 22.6 °F 23.0 °F 86% 29.75 in 3.0 mi SW 3.5 mph - N/A   Partly Cloudy
9:15 PM 24.8 °F 20.5 °F 23.0 °F 93% 29.75 in 4.0 mi SSW 3.5 mph - N/A   Partly Cloudy
9:35 PM 24.8 °F 20.5 °F 23.0 °F 93% 29.75 in 5.0 mi SSW 3.5 mph - N/A   Clear
9:55 PM 24.8 °F 20.5 °F 23.0 °F 93% 29.74 in 6.0 mi SW 3.5 mph - N/A   Clear
10:15 PM 24.8 °F 19.1 °F 21.2 °F 86% 29.75 in 5.0 mi SW 4.6 mph - N/A   Clear
10:35 PM 24.8 °F 20.5 °F 21.2 °F 86% 29.75 in 5.0 mi WSW 3.5 mph - N/A   Partly Cloudy
10:55 PM 23.0 °F 18.4 °F 19.4 °F 86% 29.75 in 4.0 mi WSW 3.5 mph - N/A   Scattered Clouds
11:35 PM 21.2 °F 16.4 °F 19.4 °F 93% 29.75 in 1.8 mi WSW 3.5 mph - N/A   Mostly Cloudy
11:55 PM 23.0 °F 18.4 °F 19.4 °F 86% 29.75 in 5.0 mi West 3.5 mph - N/A   Overcast